This is the latest recevied weather packets stored in our database for station/object SR9WXP. If no packets are shown the sender has not sent any weather packets the latest 1 day(s).
| Time | Temp. | Humidity | Pressure | Rain* | Wind** | Luminosity | Snow |
|---|---|---|---|---|---|---|---|
| 1778004082 | 10.56° C | 51% | 851.1 hPa | - | 2.68 m/s, 183° | - | - |
| 1778004023 | 10.56° C | 51% | 851.1 hPa | - | 3.13 m/s, 180° | - | - |
| 1778003903 | 11.11° C | 50% | 851.1 hPa | - | 3.13 m/s, 180° | - | - |
| 1778003779 | 11.11° C | 50% | 851.1 hPa | - | 2.24 m/s, 185° | - | - |
| 1778003661 | 11.11° C | 50% | 851.2 hPa | - | 2.68 m/s, 180° | - | - |
| 1778003541 | 11.67° C | 50% | 851.1 hPa | - | 3.13 m/s, 183° | - | - |
| 1778003479 | 11.67° C | 50% | 851.1 hPa | - | 2.68 m/s, 185° | - | - |
| 1778003420 | 11.67° C | 50% | 851.1 hPa | - | 2.68 m/s, 184° | - | - |
| 1778003301 | 11.67° C | 50% | 851.1 hPa | - | 1.79 m/s, 186° | - | - |
| 1778003163 | 11.67° C | 50% | 851.1 hPa | - | 2.68 m/s, 189° | - | - |
| 1778003045 | 11.67° C | 50% | 851.1 hPa | - | 2.24 m/s, 185° | - | - |
| 1778002925 | 11.67° C | 50% | 851.2 hPa | - | 2.24 m/s, 178° | - | - |
| 1778002864 | 12.22° C | 49% | 851.2 hPa | - | 2.68 m/s, 181° | - | - |
| 1778002804 | 12.22° C | 49% | 851.2 hPa | - | 3.13 m/s, 180° | - | - |
| 1778002684 | 12.22° C | 49% | 851.2 hPa | - | 4.02 m/s, 189° | - | - |
| 1778002560 | 12.22° C | 49% | 851.1 hPa | - | 4.47 m/s, 189° | - | - |
| 1778002442 | 12.78° C | 49% | 851 hPa | - | 4.47 m/s, 182° | - | - |
| 1778002260 | 13.33° C | 49% | 851 hPa | - | 4.47 m/s, 184° | - | - |
| 1778002201 | 13.33° C | 49% | 850.9 hPa | - | 4.02 m/s, 180° | - | - |
| 1778002091 | 13.33° C | 49% | 850.9 hPa | - | 3.58 m/s, 188° | - | - |
| 1778001957 | 13.33° C | 49% | 850.9 hPa | - | 3.13 m/s, 189° | - | - |
| 1778001839 | 13.89° C | 49% | 850.9 hPa | - | 4.02 m/s, 188° | - | - |
| 1778001719 | 13.89° C | 49% | 850.8 hPa | - | 3.13 m/s, 189° | - | - |
| 1778001657 | 13.89° C | 48% | 850.8 hPa | - | 3.58 m/s, 186° | - | - |
| 1778001598 | 13.89° C | 48% | 850.7 hPa | - | 3.58 m/s, 181° | - | - |
* Rain since midnight (hover to see other rain measurements)
** Current wind speed in m/s (hover to see current wind gust speed)